| time (UTC) | temp C | wind direction | speed KPH | gust KPH | rain 1hr cm | rain 24hr cm | rain mn cm | humidity % | barometer mb |
| 20260904004523 | 14 | 269 | 0.0 | 0.0 | 0.00 | 0.00 | 0.00 | 84 | 1020.8 |
| 20260904003020 | 14 | 269 | 0.0 | 0.0 | 0.00 | 0.00 | 0.00 | 83 | 1020.9 |
| 20260904001514 | 15 | 269 | 0.0 | 0.0 | 0.00 | 0.00 | 0.00 | 82 | 1021.2 |
| 20260904000012 | 15 | 269 | 0.0 | 0.0 | 0.00 | 0.00 | 0.00 | 81 | 1021.3 |
| 20260903234510 | 15 | 269 | 0.0 | 0.0 | 0.00 | 0.00 | 0.00 | 81 | 1021.4 |
| 20260903233023 | 15 | 269 | 0.0 | 0.0 | 0.00 | 0.00 | 0.00 | 80 | 1021.4 |
| 20260903231506 | 16 | 269 | 0.0 | 0.0 | 0.00 | 0.00 | 0.00 | 79 | 1021.4 |
| 20260903230003 | 16 | 269 | 0.0 | 0.0 | 0.00 | 0.00 | 0.00 | 77 | 1021.5 |
| 20260903224503 | 17 | 269 | 0.0 | 0.0 | 0.00 | 0.00 | 0.00 | 76 | 1021.4 |
| 20260903223002 | 17 | 269 | 0.0 | 0.0 | 0.00 | 0.00 | 0.00 | 75 | 1021.3 |
| 20260903221503 | 17 | 269 | 0.0 | 0.0 | 0.00 | 0.00 | 0.00 | 75 | 1021.4 |
| 20260903220002 | 18 | 269 | 0.0 | 0.0 | 0.00 | 0.00 | 0.00 | 73 | 1021.4 |
| 20260903214502 | 18 | 269 | 0.0 | 0.0 | 0.00 | 0.00 | 0.00 | 71 | 1021.4 |
| 20260903213001 | 18 | 269 | 0.0 | 0.0 | 0.00 | 0.00 | 0.00 | 72 | 1021.4 |
| 20260903211501 | 18 | 269 | 0.0 | 0.0 | 0.00 | 0.00 | 0.00 | 69 | 1021.5 |
| 20260903210140 | 18 | 269 | 0.0 | 0.0 | 0.00 | 0.00 | 0.00 | 69 | 1021.7 |
| 20260903204607 | 18 | 269 | 0.0 | 0.0 | 0.00 | 0.00 | 0.00 | 68 | 1021.6 |
| 20260903203100 | 18 | 269 | 0.0 | 0.0 | 0.00 | 0.00 | 0.00 | 69 | 1021.6 |
| 20260903201600 | 18 | 269 | 0.0 | 0.0 | 0.00 | 0.00 | 0.00 | 70 | 1021.4 |
| 20260903200116 | 17 | 269 | 0.0 | 0.0 | 0.00 | 0.00 | 0.00 | 74 | 1021.4 |
| 20260903194558 | 17 | 269 | 0.0 | 0.0 | 0.00 | 0.00 | 0.00 | 75 | 1021.5 |
| 20260903193101 | 17 | 269 | 0.0 | 0.0 | 0.00 | 0.00 | 0.00 | 75 | 1021.7 |
| 20260903191604 | 17 | 269 | 0.0 | 0.0 | 0.00 | 0.00 | 0.00 | 74 | 1021.6 |
| 20260903190059 | 17 | 269 | 0.0 | 0.0 | 0.00 | 0.00 | 0.00 | 72 | 1021.3 |
| 20260903184603 | 18 | 269 | 0.0 | 0.0 | 0.00 | 0.00 | 0.00 | 70 | 1021.2 |
| 20260903183101 | 18 | 269 | 0.0 | 0.0 | 0.00 | 0.00 | 0.00 | 66 | 1021.1 |
| 20260903181557 | 20 | 269 | 0.0 | 0.0 | 0.00 | 0.00 | 0.00 | 62 | 1020.9 |
| 20260903180056 | 20 | 269 | 0.0 | 0.0 | 0.00 | 0.00 | 0.00 | 59 | 1020.8 |
| 20260903174556 | 21 | 269 | 0.0 | 0.0 | 0.00 | 0.00 | 0.00 | 56 | 1020.7 |
| 20260903173055 | 21 | 269 | 0.0 | 0.0 | 0.00 | 0.00 | 0.00 | 55 | 1020.6 |
| 20260903171610 | 22 | 269 | 0.0 | 3.2 | 0.00 | 0.00 | 0.00 | 53 | 1020.8 |
| 20260903170058 | 22 | 269 | 0.0 | 8.0 | 0.00 | 0.00 | 0.00 | 53 | 1020.7 |
| 20260903164556 | 22 | 269 | 0.0 | 4.8 | 0.00 | 0.00 | 0.00 | 52 | 1020.7 |
| 20260903163054 | 23 | 269 | 1.6 | 8.0 | 0.00 | 0.00 | 0.00 | 50 | 1020.6 |
| 20260903161556 | 23 | 259 | 0.0 | 6.4 | 0.00 | 0.00 | 0.00 | 49 | 1020.8 |
| 20260903160052 | 23 | 276 | 1.6 | 9.7 | 0.00 | 0.00 | 0.00 | 50 | 1020.7 |
| 20260903154554 | 23 | 263 | 1.6 | 11.3 | 0.00 | 0.00 | 0.00 | 51 | 1020.7 |
| 20260903153050 | 23 | 255 | 3.2 | 16.1 | 0.00 | 0.00 | 0.00 | 51 | 1020.9 |
| 20260903151605 | 23 | 269 | 0.0 | 8.0 | 0.00 | 0.00 | 0.00 | 52 | 1020.9 |
| 20260903150054 | 23 | 261 | 0.0 | 6.4 | 0.00 | 0.00 | 0.00 | 52 | 1021.0 |
| 20260903144549 | 23 | 257 | 0.0 | 9.7 | 0.00 | 0.00 | 0.00 | 50 | 1021.0 |
| 20260903143048 | 24 | 266 | 3.2 | 11.3 | 0.00 | 0.00 | 0.00 | 47 | 1021.0 |
| 20260903141545 | 24 | 248 | 3.2 | 19.3 | 0.00 | 0.00 | 0.00 | 48 | 1021.0 |
| 20260903140045 | 23 | 246 | 0.0 | 4.8 | 0.00 | 0.00 | 0.00 | 53 | 1021.1 |
| 20260903134547 | 23 | 274 | 1.6 | 11.3 | 0.00 | 0.00 | 0.00 | 51 | 1021.1 |
| 20260903133045 | 23 | 277 | 0.0 | 14.5 | 0.00 | 0.00 | 0.00 | 53 | 1021.3 |
| 20260903131541 | 22 | 271 | 3.2 | 14.5 | 0.00 | 0.00 | 0.00 | 53 | 1021.3 |
| 20260903130046 | 22 | 274 | 1.6 | 19.3 | 0.00 | 0.00 | 0.00 | 54 | 1021.5 |
| 20260903124536 | 22 | 269 | 0.0 | 6.4 | 0.00 | 0.00 | 0.00 | 57 | 1021.5 |
| 20260903123034 | 22 | 272 | 0.0 | 6.4 | 0.00 | 0.00 | 0.00 | 57 | 1021.7 |
| 20260903121533 | 21 | 275 | 0.0 | 9.7 | 0.00 | 0.00 | 0.00 | 57 | 1021.9 |
| 20260903120035 | 21 | 271 | 0.0 | 8.0 | 0.00 | 0.00 | 0.00 | 57 | 1022.0 |
| 20260903114532 | 21 | 263 | 1.6 | 6.4 | 0.00 | 0.00 | 0.00 | 56 | 1021.9 |
| 20260903113031 | 22 | 276 | 3.2 | 14.5 | 0.00 | 0.00 | 0.00 | 55 | 1021.9 |
| 20260903111529 | 22 | 269 | 0.0 | 6.4 | 0.00 | 0.00 | 0.00 | 56 | 1022.0 |
| 20260903110028 | 21 | 273 | 0.0 | 6.4 | 0.00 | 0.00 | 0.00 | 57 | 1022.3 |
| 20260903104527 | 21 | 273 | 0.0 | 12.9 | 0.00 | 0.00 | 0.00 | 58 | 1022.2 |
| 20260903103026 | 21 | 267 | 1.6 | 14.5 | 0.00 | 0.00 | 0.00 | 56 | 1022.5 |
| 20260903101539 | 21 | 260 | 3.2 | 12.9 | 0.00 | 0.00 | 0.00 | 55 | 1022.5 |
| 20260903100029 | 21 | 275 | 3.2 | 8.0 | 0.00 | 0.00 | 0.00 | 56 | 1022.7 |
| 20260903094521 | 21 | 275 | 1.6 | 9.7 | 0.00 | 0.00 | 0.00 | 56 | 1022.8 |
| 20260903093019 | 21 | 268 | 0.0 | 9.7 | 0.00 | 0.00 | 0.00 | 57 | 1022.6 |
| 20260903091515 | 20 | 265 | 3.2 | 8.0 | 0.00 | 0.00 | 0.00 | 57 | 1022.8 |
| 20260903090014 | 20 | 264 | 1.6 | 8.0 | 0.00 | 0.00 | 0.00 | 58 | 1022.8 |
| 20260903084526 | 20 | 268 | 0.0 | 11.3 | 0.00 | 0.00 | 0.00 | 59 | 1022.8 |
| 20260903083019 | 20 | 271 | 0.0 | 6.4 | 0.00 | 0.00 | 0.00 | 60 | 1022.7 |
| 20260903081509 | 19 | 271 | 1.6 | 8.0 | 0.00 | 0.00 | 0.00 | 63 | 1022.6 |
| 20260903080011 | 18 | 268 | 0.0 | 8.0 | 0.00 | 0.00 | 0.00 | 65 | 1022.6 |
| 20260903074504 | 18 | 265 | 0.0 | 4.8 | 0.00 | 0.00 | 0.00 | 68 | 1022.6 |
| 20260903073004 | 18 | 265 | 0.0 | 4.8 | 0.00 | 0.00 | 0.00 | 68 | 1022.8 |
| 20260903071502 | 17 | 266 | 0.0 | 6.4 | 0.00 | 0.00 | 0.00 | 70 | 1022.8 |
| 20260903070058 | 17 | 261 | 0.0 | 6.4 | 0.00 | 0.00 | 0.00 | 73 | 1022.8 |
| 20260903064603 | 16 | 258 | 1.6 | 4.8 | 0.00 | 0.00 | 0.00 | 76 | 1022.6 |
| 20260903063050 | 14 | 257 | 0.0 | 0.0 | 0.00 | 0.00 | 0.00 | 89 | 1022.7 |
| 20260903061545 | 12 | 257 | 0.0 | 0.0 | 0.00 | 0.00 | 0.00 | 94 | 1022.6 |
| 20260903060043 | 11 | 257 | 0.0 | 0.0 | 0.00 | 0.00 | 0.00 | 94 | 1022.7 |
| 20260903054541 | 10 | 257 | 0.0 | 0.0 | 0.00 | 0.00 | 0.00 | 94 | 1023.0 |
| 20260903053037 | 9 | 257 | 0.0 | 0.0 | 0.00 | 0.00 | 0.00 | 93 | 1022.7 |
| 20260903051535 | 9 | 257 | 0.0 | 0.0 | 0.00 | 0.00 | 0.00 | 92 | 1022.6 |
| 20260903050033 | 9 | 257 | 0.0 | 0.0 | 0.00 | 0.00 | 0.00 | 92 | 1022.3 |
| 20260903044537 | 9 | 257 | 0.0 | 0.0 | 0.00 | 0.00 | 0.00 | 92 | 1022.1 |
| 20260903043034 | 9 | 257 | 0.0 | 0.0 | 0.00 | 0.00 | 0.00 | 91 | 1022.0 |
| 20260903041529 | 9 | 257 | 0.0 | 0.0 | 0.00 | 0.00 | 0.00 | 91 | 1022.1 |
| 20260903040032 | 10 | 257 | 0.0 | 0.0 | 0.00 | 0.00 | 0.00 | 91 | 1022.1 |
| 20260903034526 | 10 | 257 | 0.0 | 0.0 | 0.00 | 0.00 | 0.00 | 91 | 1022.2 |
| 20260903033025 | 10 | 257 | 0.0 | 0.0 | 0.00 | 0.00 | 0.00 | 90 | 1022.4 |
| 20260903031525 | 10 | 257 | 0.0 | 0.0 | 0.00 | 0.00 | 0.00 | 90 | 1022.4 |
| 20260903030027 | 10 | 257 | 0.0 | 0.0 | 0.00 | 0.00 | 0.00 | 90 | 1022.3 |
| 20260903024521 | 10 | 257 | 0.0 | 0.0 | 0.00 | 0.00 | 0.00 | 90 | 1022.3 |
| 20260903023019 | 10 | 257 | 0.0 | 0.0 | 0.00 | 0.00 | 0.00 | 89 | 1022.3 |
| 20260903021518 | 11 | 257 | 0.0 | 0.0 | 0.00 | 0.00 | 0.00 | 89 | 1022.3 |
| 20260903020014 | 11 | 257 | 0.0 | 0.0 | 0.00 | 0.00 | 0.00 | 89 | 1022.4 |
| 20260903014512 | 11 | 257 | 0.0 | 0.0 | 0.00 | 0.00 | 0.00 | 88 | 1022.4 |
| 20260903013012 | 11 | 257 | 0.0 | 0.0 | 0.00 | 0.00 | 0.00 | 88 | 1022.2 |
| 20260903011510 | 11 | 257 | 0.0 | 0.0 | 0.00 | 0.00 | 0.00 | 87 | 1022.3 |
| 20260903010009 | 12 | 257 | 0.0 | 0.0 | 0.00 | 0.00 | 0.00 | 87 | 1022.4 |